TimeEST,TemperatureF,Dew PointF,Humidity,Sea Level PressureIn,VisibilityMPH,Wind Direction,Wind SpeedMPH,Gust SpeedMPH,PrecipitationIn,Events,Conditions,WindDirDegrees,DateUTC
12:15 AM,46.4,46.4,100,30.00,0.8,Calm,Calm,-,N/A,,Overcast,0,2012-12-09 05:15:00
12:53 AM,46.0,46.0,100,30.02,0.5,WSW,4.6,-,N/A,Fog,Fog,250,2012-12-09 05:53:00
1:53 AM,46.0,46.0,100,30.05,0.5,Calm,Calm,-,N/A,Fog,Fog,0,2012-12-09 06:53:00
2:49 AM,44.6,44.6,100,30.07,1.2,North,4.6,-,N/A,,Overcast,360,2012-12-09 07:49:00
2:53 AM,45.0,45.0,100,30.07,2.0,Calm,Calm,-,N/A,,Overcast,0,2012-12-09 07:53:00
3:02 AM,44.6,44.6,100,30.07,4.0,Calm,Calm,-,N/A,,Overcast,0,2012-12-09 08:02:00
3:13 AM,44.6,44.6,100,30.08,5.0,Calm,Calm,-,N/A,,Overcast,0,2012-12-09 08:13:00
3:24 AM,44.6,44.6,100,30.08,5.0,Calm,Calm,-,N/A,,Overcast,0,2012-12-09 08:24:00
3:53 AM,46.0,45.0,96,30.09,6.0,Calm,Calm,-,N/A,,Overcast,0,2012-12-09 08:53:00
4:28 AM,44.6,42.8,93,30.11,2.5,Calm,Calm,-,N/A,,Scattered Clouds,0,2012-12-09 09:28:00
4:33 AM,42.8,42.8,100,30.11,1.0,Calm,Calm,-,0.01,,Scattered Clouds,0,2012-12-09 09:33:00
4:42 AM,44.6,42.8,93,30.11,1.5,Calm,Calm,-,0.01,,Partly Cloudy,0,2012-12-09 09:42:00
4:44 AM,42.8,42.8,100,30.11,4.0,Calm,Calm,-,0.01,,Clear,0,2012-12-09 09:44:00
4:53 AM,43.0,42.1,97,30.12,7.0,NNE,4.6,-,0.01,,Clear,20,2012-12-09 09:53:00
5:53 AM,39.9,37.9,93,30.16,9.0,Calm,Calm,-,N/A,,Clear,0,2012-12-09 10:53:00
6:53 AM,41.0,36.0,82,30.20,10.0,North,6.9,-,N/A,,Clear,10,2012-12-09 11:53:00
7:23 AM,39.2,33.8,81,30.23,10.0,North,9.2,-,N/A,,Clear,360,2012-12-09 12:23:00
7:53 AM,41.0,34.0,76,30.24,10.0,North,8.1,-,N/A,,Clear,360,2012-12-09 12:53:00
8:53 AM,41.0,32.0,70,30.26,10.0,North,10.4,-,N/A,,Clear,10,2012-12-09 13:53:00
9:53 AM,41.0,32.0,70,30.27,10.0,NNE,6.9,-,N/A,,Clear,20,2012-12-09 14:53:00
10:53 AM,41.0,30.9,67,30.27,10.0,North,8.1,-,N/A,,Mostly Cloudy,360,2012-12-09 15:53:00
11:53 AM,41.0,30.9,67,30.25,10.0,North,6.9,-,N/A,,Overcast,360,2012-12-09 16:53:00
12:53 PM,42.1,30.9,65,30.24,10.0,NE,4.6,-,N/A,,Overcast,40,2012-12-09 17:53:00
1:53 PM,42.1,32.0,67,30.23,10.0,ENE,5.8,-,N/A,,Overcast,70,2012-12-09 18:53:00
2:53 PM,42.1,34.0,73,30.22,8.0,ENE,5.8,-,0.00,Rain,Light Rain,60,2012-12-09 19:53:00
3:53 PM,42.1,35.1,76,30.22,10.0,ENE,3.5,-,0.00,Rain,Light Rain,60,2012-12-09 20:53:00
5:53 PM,41.0,36.0,82,30.24,7.0,ENE,5.8,-,0.02,Rain,Light Rain,60,2012-12-09 22:53:00
6:34 PM,39.2,37.4,93,30.21,7.0,ENE,6.9,-,0.02,Rain,Light Rain,70,2012-12-09 23:34:00
6:53 PM,39.9,37.0,89,30.22,7.0,ENE,5.8,-,0.02,Rain,Light Rain,60,2012-12-09 23:53:00
7:53 PM,39.9,37.9,93,30.20,3.0,East,6.9,-,0.01,Rain,Light Rain,80,2012-12-10 00:53:00
8:14 PM,39.2,37.4,93,30.19,4.0,ENE,6.9,-,0.00,Rain,Light Rain,70,2012-12-10 01:14:00
8:27 PM,39.2,37.4,93,30.18,4.0,ENE,8.1,-,0.00,Rain,Light Rain,70,2012-12-10 01:27:00
8:53 PM,39.9,37.9,93,30.17,4.0,East,8.1,-,0.00,,Overcast,80,2012-12-10 01:53:00
9:53 PM,39.9,37.9,93,30.12,4.0,East,9.2,-,0.01,Rain,Light Rain,90,2012-12-10 02:53:00
10:53 PM,39.9,37.9,93,30.11,3.0,ENE,6.9,-,0.00,Rain,Light Rain,60,2012-12-10 03:53:00
11:53 PM,39.9,37.9,93,30.07,4.0,ENE,6.9,-,0.07,Rain,Rain,60,2012-12-10 04:53:00